When you browse on this site, cookies collect data to enhance your experience and personalize the content and advertising you see.
Visit our Privacy Policy to learn more. By continuing to use the site, you agree to this use of cookies and data.
  • In Sweden
  • List of Countries
  • For 7 days
  • Water Temperature
  • Satellite Maps
  • Weather Map
  • Weather Widgets
  • user-avatar
    Login

    Hourly Weather Omel'horod

    Today, 16 June, Sunday

    Time Temperature Precipitation Wind Pressure Humidity
    00:00 +21°C° 0 mm 2 mps 744 mmHg 77%
    01:00 +20°C° 0 mm 2 mps 744 mmHg 76%
    02:00 +20°C° 0 mm 1 mps 744 mmHg 76%
    03:00 +19°C° 0 mm 2 mps 744 mmHg 80%
    04:00 +19°C° 0 mm 2 mps 743 mmHg 83%
    05:00 +19°C° 0 mm 2 mps 743 mmHg 87%
    06:00 +21°C° 0 mm 3 mps 744 mmHg 83%
    07:00 +24°C° 0 mm 3 mps 744 mmHg 80%
    08:00 +25°C° 0 mm 3 mps 744 mmHg 76%
    09:00 +26°C° 0.1 mm 3 mps 744 mmHg 72%
    10:00 +27°C° 0.1 mm 4 mps 744 mmHg 68%
    11:00 +28°C° 0.1 mm 4 mps 744 mmHg 63%
    12:00 +28°C° 0 mm 4 mps 744 mmHg 62%
    13:00 +28°C° 0 mm 4 mps 744 mmHg 60%
    14:00 +29°C° 0 mm 4 mps 744 mmHg 58%
    15:00 +28°C° 0 mm 4 mps 744 mmHg 60%
    16:00 +28°C° 0 mm 4 mps 743 mmHg 62%
    17:00 +27°C° 0 mm 4 mps 743 mmHg 64%
    18:00 +26°C° 0 mm 3 mps 743 mmHg 69%
    19:00 +24°C° 0 mm 3 mps 743 mmHg 74%
    20:00 +22°C° 0 mm 3 mps 744 mmHg 79%
    21:00 +21°C° 0 mm 2 mps 744 mmHg 81%
    22:00 +20°C° 0 mm 2 mps 744 mmHg 83%
    23:00 +19°C° 0 mm 2 mps 745 mmHg 86%

    Tomorrow, 17 June, Monday

    Time Temperature Precipitation Wind Pressure Humidity
    00:00 +19°C° 0 mm 2 mps 745 mmHg 88%
    01:00 +19°C° 0 mm 2 mps 745 mmHg 90%
    02:00 +18°C° 0 mm 2 mps 745 mmHg 91%
    03:00 +19°C° 0 mm 1 mps 745 mmHg 91%
    04:00 +19°C° 0 mm 1 mps 745 mmHg 91%
    05:00 +20°C° 0 mm 1 mps 745 mmHg 90%
    06:00 +21°C° 0 mm 1 mps 745 mmHg 84%
    07:00 +22°C° 0 mm 1 mps 746 mmHg 78%
    08:00 +24°C° 0 mm 2 mps 746 mmHg 72%
    09:00 +25°C° 0 mm 2 mps 746 mmHg 66%
    10:00 +26°C° 0 mm 2 mps 746 mmHg 61%
    11:00 +27°C° 0 mm 2 mps 746 mmHg 56%
    12:00 +27°C° 0 mm 2 mps 745 mmHg 53%
    13:00 +27°C° 0 mm 2 mps 745 mmHg 51%
    14:00 +28°C° 0 mm 2 mps 745 mmHg 49%
    15:00 +28°C° 0 mm 2 mps 745 mmHg 50%
    16:00 +27°C° 0 mm 2 mps 745 mmHg 51%
    17:00 +27°C° 0 mm 2 mps 745 mmHg 52%
    18:00 +26°C° 0 mm 1 mps 745 mmHg 55%
    19:00 +24°C° 0 mm 1 mps 745 mmHg 58%
    20:00 +22°C° 0 mm 1 mps 745 mmHg 61%
    21:00 +22°C° 0 mm 1 mps 745 mmHg 62%
    22:00 +21°C° 0 mm 1 mps 745 mmHg 64%
    23:00 +21°C° 0 mm 1 mps 745 mmHg 65%

    Day after tomorrow, 18 June, Tuesday

    Time Temperature Precipitation Wind Pressure Humidity
    00:00 +21°C° 0 mm 1 mps 745 mmHg 67%
    01:00 +20°C° 0 mm 1 mps 745 mmHg 68%
    02:00 +20°C° 0 mm 1 mps 745 mmHg 70%
    03:00 +20°C° 0.3 mm 1 mps 745 mmHg 73%
    04:00 +20°C° 0.3 mm 1 mps 745 mmHg 76%
    05:00 +20°C° 0.3 mm 1 mps 745 mmHg 78%
    06:00 +21°C° 0.1 mm 2 mps 745 mmHg 78%
    07:00 +23°C° 0.1 mm 2 mps 746 mmHg 78%
    08:00 +25°C° 0.1 mm 3 mps 746 mmHg 77%
    09:00 +25°C° 0.5 mm 3 mps 746 mmHg 75%
    10:00 +26°C° 0.5 mm 4 mps 746 mmHg 74%
    11:00 +27°C° 0.5 mm 4 mps 745 mmHg 72%
    12:00 +27°C° 0.2 mm 4 mps 745 mmHg 69%
    13:00 +28°C° 0.2 mm 4 mps 745 mmHg 66%
    14:00 +28°C° 0.2 mm 4 mps 745 mmHg 64%
    15:00 +27°C° 0 mm 4 mps 745 mmHg 66%
    16:00 +27°C° 0 mm 4 mps 745 mmHg 68%
    17:00 +26°C° 0 mm 5 mps 745 mmHg 71%
    18:00 +25°C° 0 mm 4 mps 745 mmHg 76%
    19:00 +22°C° 0 mm 4 mps 745 mmHg 82%
    20:00 +21°C° 0 mm 3 mps 745 mmHg 88%
    21:00 +20°C° 0 mm 3 mps 745 mmHg 90%
    22:00 +19°C° 0 mm 3 mps 745 mmHg 92%
    23:00 +19°C° 0 mm 3 mps 745 mmHg 95%

    19 June, Wednesday

    Time Temperature Precipitation Wind Pressure Humidity
    00:00 +18°C° 0 mm 3 mps 745 mmHg 95%
    01:00 +18°C° 0 mm 3 mps 745 mmHg 96%
    02:00 +17°C° 0 mm 2 mps 745 mmHg 96%
    03:00 +17°C° 0 mm 3 mps 745 mmHg 96%
    04:00 +17°C° 0 mm 3 mps 745 mmHg 96%
    05:00 +18°C° 0 mm 3 mps 745 mmHg 96%
    06:00 +19°C° 0 mm 4 mps 745 mmHg 91%
    07:00 +20°C° 0 mm 4 mps 746 mmHg 86%
    08:00 +22°C° 0 mm 4 mps 746 mmHg 81%
    09:00 +23°C° 0 mm 5 mps 746 mmHg 77%
    10:00 +25°C° 0 mm 5 mps 746 mmHg 74%
    11:00 +26°C° 0 mm 5 mps 746 mmHg 70%
    12:00 +26°C° 0 mm 5 mps 746 mmHg 67%
    13:00 +27°C° 0 mm 5 mps 745 mmHg 64%
    14:00 +27°C° 0 mm 5 mps 745 mmHg 61%
    15:00 +27°C° 0 mm 5 mps 745 mmHg 62%
    16:00 +27°C° 0 mm 5 mps 745 mmHg 64%
    17:00 +27°C° 0 mm 5 mps 745 mmHg 65%
    18:00 +25°C° 0 mm 5 mps 745 mmHg 70%
    19:00 +23°C° 0 mm 4 mps 745 mmHg 75%
    20:00 +21°C° 0 mm 3 mps 745 mmHg 79%
    21:00 +21°C° 0 mm 3 mps 745 mmHg 82%
    22:00 +20°C° 0 mm 3 mps 745 mmHg 85%
    23:00 +19°C° 0 mm 3 mps 746 mmHg 88%

    20 June, Thursday

    Time Temperature Precipitation Wind Pressure Humidity
    00:00 +19°C° 0 mm 3 mps 746 mmHg 89%
    01:00 +19°C° 0 mm 3 mps 745 mmHg 90%
    02:00 +18°C° 0 mm 3 mps 745 mmHg 92%
    03:00 +18°C° 0 mm 3 mps 745 mmHg 91%
    04:00 +18°C° 0 mm 3 mps 745 mmHg 91%
    05:00 +18°C° 0 mm 3 mps 745 mmHg 90%
    06:00 +20°C° 0 mm 4 mps 746 mmHg 85%
    07:00 +22°C° 0 mm 4 mps 746 mmHg 79%
    08:00 +23°C° 0 mm 4 mps 746 mmHg 74%
    09:00 +25°C° 0 mm 4 mps 746 mmHg 69%
    10:00 +26°C° 0 mm 4 mps 746 mmHg 65%
    11:00 +27°C° 0 mm 4 mps 746 mmHg 60%
    12:00 +28°C° 0 mm 4 mps 746 mmHg 58%
    13:00 +28°C° 0 mm 4 mps 746 mmHg 56%
    14:00 +29°C° 0 mm 4 mps 745 mmHg 54%
    15:00 +28°C° 0 mm 4 mps 745 mmHg 55%
    16:00 +28°C° 0 mm 4 mps 745 mmHg 57%
    17:00 +28°C° 0 mm 3 mps 745 mmHg 58%
    18:00 +26°C° 0 mm 3 mps 745 mmHg 63%
    19:00 +25°C° 0 mm 3 mps 745 mmHg 67%
    20:00 +23°C° 0 mm 2 mps 745 mmHg 72%
    21:00 +21°C° 0 mm 2 mps 746 mmHg 74%
    22:00 +21°C° 0 mm 2 mps 746 mmHg 77%
    23:00 +20°C° 0 mm 3 mps 746 mmHg 79%

    21 June, Friday

    Time Temperature Precipitation Wind Pressure Humidity
    00:00 +20°C° 0 mm 2 mps 746 mmHg 80%
    01:00 +20°C° 0 mm 2 mps 746 mmHg 82%
    02:00 +19°C° 0 mm 2 mps 746 mmHg 83%
    03:00 +19°C° 0 mm 2 mps 746 mmHg 83%
    04:00 +19°C° 0 mm 2 mps 746 mmHg 84%
    05:00 +19°C° 0 mm 2 mps 746 mmHg 84%
    06:00 +21°C° 0 mm 2 mps 746 mmHg 78%
    07:00 +24°C° 0 mm 2 mps 747 mmHg 73%
    08:00 +26°C° 0 mm 2 mps 747 mmHg 67%
    09:00 +27°C° 0 mm 2 mps 747 mmHg 61%
    10:00 +28°C° 0 mm 2 mps 747 mmHg 56%
    11:00 +29°C° 0 mm 3 mps 747 mmHg 50%
    12:00 +29°C° 0 mm 2 mps 747 mmHg 48%
    13:00 +30°C° 0 mm 2 mps 747 mmHg 46%
    14:00 +30°C° 0 mm 2 mps 746 mmHg 44%
    15:00 +30°C° 0 mm 2 mps 746 mmHg 45%
    16:00 +30°C° 0 mm 2 mps 746 mmHg 46%
    17:00 +30°C° 0 mm 1 mps 746 mmHg 47%
    18:00 +28°C° 0 mm 2 mps 746 mmHg 53%
    19:00 +26°C° 0 mm 2 mps 746 mmHg 59%
    20:00 +24°C° 0 mm 2 mps 746 mmHg 66%
    21:00 +23°C° 0 mm 2 mps 746 mmHg 65%
    22:00 +23°C° 0 mm 2 mps 746 mmHg 65%
    23:00 +21°C° 0 mm 2 mps 746 mmHg 65%
    Show more